Regional Weather Roundup
Issued by NWS Sioux Falls, SD

Home | Current Version | Previous Version | Graphics & Text | Print | Product List | Glossary On
Versions: 1 2 3 4 5 6 7 8 9 10 11 12 13 14 15 16 17 18 19 20 21 22 23 24 25 26 27 28 29 30 31 32 33 34 35 36 37 38 39 40 41 42 43 44 45 46 47 48 49 50
257
ASUS43 KFSD 242210
RWRFSD

WEATHER ROUNDUP FOR SE SOUTH DAKOTA/SW MINNESOTA/NW IOWA
NATIONAL WEATHER SERVICE SIOUX FALLS SD
500 PM CDT SAT SEP 24 2016

NOTE: "FAIR" INDICATES FEW OR NO CLOUDS BELOW 12,000 FEET WITH NO
SIGNIFICANT WEATHER AND OR OBSTRUCTIONS TO VISIBILITY.


SDZ038>040-050-052>070-242300-
SOUTHEAST SOUTH DAKOTA

CITY           SKY/WX    TMP DP  RH WIND       PRES   REMARKS
CHAMBERLAIN    SUNNY     80  45  28 SW10      29.81S
HURON          CLOUDY    79  59  50 S14G20    29.79F
MADISON        MOCLDY    68  68 100 S10       29.87S
MITCHELL       MOSUNNY   80  59  48 S13G18    29.83S
SIOUX FALLS    CLOUDY    70  66  87 S13       29.86F
WINNER         FAIR      80  39  23 W16       29.83S
YANKTON        PTSUNNY   73  70  88 S9        29.85S
$$

MNZ071-072-080-081-089-090-097-098-242300-
SOUTHWEST MINNESOTA

CITY           SKY/WX    TMP DP  RH WIND       PRES   REMARKS
FAIRMONT       CLOUDY    81  68  64 SE13G22   29.92S
JACKSON        CLOUDY    81  64  57 SE10G21   29.91F
LUVERNE        LGT RAIN  64  63  94 SW7       29.87F
MARSHALL       TSTM      67  64  90 SW10      29.89S
MONTEVIDEO     TSTM      70  61  73 SW15G31   29.93R
PIPESTONE      LGT RAIN  66  64  94 S3        29.88F
REDWOOD FALLS  CLOUDY    80  66  62 SE12      29.88S
TRACY          TSTM      68  65  92 SW13G21   29.92R
WINDOM         TSTM      77  64  65 SW17G25   29.95R
WORTHINGTON    TSTM      67  65  93 S3        29.93F
$$

IAZ001>003-012>014-020>022-031-032-NEZ013-014-SDZ071-242300-
NORTHWEST IOWA

CITY           SKY/WX    TMP DP  RH WIND       PRES   REMARKS
CHEROKEE       CLOUDY    71  70  98 S10       29.92F
DENISON        LGT RAIN  70  68  94 E8        29.90F
ESTHERVILLE    CLOUDY    80  68  66 SE17G24   29.90F
LE MARS        CLOUDY    73  70  88 S8        29.88F
ORANGE CITY    CLOUDY    73  70  88 SE7G16    29.88F
SHELDON        LGT RAIN  72  70  94 SE12      29.87F
SIOUX CITY     CLOUDY    74  71  91 E6        29.86F
SPENCER        LGT RAIN  74  69  85 SW22G32   29.93R
STORM LAKE     CLOUDY    68  66  94 S9        29.96R
$$

ABBREVIATIONS USED IN REMARKS
   TC - TEMPERATURE IN CELSIUS
  WCI - WIND CHILL INDEX
   HX - HEAT INDEX
  VSB - VISIBILITY





USA.gov is the U.S. government's official web portal to all federal, state and local government web resources and services.